Lid_Strength_Index
1 1 1 1 0 0 0 0 0 0 0 0 -0 -0 -0 -0 0 2 6 4 2 -2 1 3 3 4 4 4 5 5 8 9 9 9 8 6 7 6 6 6 6 5 5 4 4
1 1 0 0 0 0 0 0 0 0 0 0 0 0 0 0 3 5 1 -1 -2 -1 4 4 5 5 5 5 5 6 8 8 7 7 8 7 7 6 6 6 6 5 4 4 5
1 1 1 1 0 0 0 0 0 0 0 0 1 0 0 0 6 6 -1 -2 -2 0 3 4 4 5 6 6 6 7 9 7 7 7 8 7 7 6 6 7 5 5 5 4 5
1 1 1 1 1 0 0 0 0 0 0 0 1 1 0 3 9 6 -2 -3 -2 3 4 5 5 6 7 8 7 9 7 7 7 7 8 8 7 8 7 6 4 4 4 4 4
1 1 1 1 1 1 0 0 0 0 0 0 1 1 3 7 6 1 -2 -1 2 4 4 5 6 6 8 8 8 9 7 7 7 7 8 7 8 8 7 5 4 4 5 5 5
1 1 1 1 1 1 0 0 0 0 0 0 1 1 6 10 5 -0 -1 3 3 4 5 5 6 6 8 8 9 8 8 8 8 8 8 9 8 9 7 5 6 6 6 6 5
1 1 1 1 1 1 0 0 0 0 1 1 1 3 8 7 4 1 3 3 4 4 5 6 6 7 7 9 8 9 10 9 9 9 9 9 10 10 7 7 7 7 6 6 6
1 2 2 1 1 1 1 1 1 1 1 1 1 3 8 6 3 4 5 6 5 6 6 6 6 7 8 8 10 11 11 12 9 10 10 9 12 8 7 8 8 7 7 6 6
2 2 2 1 1 1 1 1 2 1 1 1 4 7 9 5 7 6 6 7 7 7 7 7 7 8 9 10 11 11 13 12 11 10 10 10 11 8 8 9 9 8 8 7 7
2 2 2 2 2 2 2 3 3 2 2 2 5 9 8 9 7 8 7 7 8 8 8 8 9 10 11 11 14 13 14 13 13 10 11 12 12 10 9 9 9 9 8 8 7
2 2 2 2 2 2 4 5 5 6 6 7 7 9 9 8 7 8 8 8 8 9 11 10 11 13 11 10 10 12 13 14 12 10 12 12 12 11 10 9 9 9 8 8 8
1 1 1 1 1 2 4 5 7 7 8 7 7 8 8 7 9 9 7 9 10 11 11 12 13 10 10 11 12 12 13 13 12 11 13 12 13 11 10 10 9 9 9 8 8
2 2 2 2 2 2 5 6 6 7 10 9 10 10 10 8 10 10 9 10 11 13 12 12 11 11 11 12 13 12 13 13 13 13 12 14 13 12 10 9 9 9 8 8 8
3 3 3 2 3 4 6 7 6 7 11 10 12 11 10 10 12 11 10 10 12 13 12 12 11 13 13 13 12 14 11 13 14 15 16 14 17 12 10 10 10 9 9 9 9
4 4 2 3 3 4 6 6 7 9 18 12 12 9 10 12 12 11 10 10 13 13 13 12 13 14 14 13 12 13 13 14 14 15 16 15 17 12 13 12 10 9 10 10 10
5 4 3 2 2 5 6 6 7 12 19 12 12 12 12 12 12 11 11 10 10 12 12 12 12 12 12 12 12 13 13 13 15 15 18 14 15 14 12 12 10 9 11 11 11
5 5 3 3 4 3 4 4 12 17 9 11 13 12 12 13 12 12 11 11 11 13 12 11 11 12 12 13 13 13 14 16 16 17 17 15 15 14 11 11 11 12 11 11 11
6 5 4 2 3 3 2 8 17 12 11 9 10 11 11 11 10 11 11 11 11 12 13 13 14 13 12 11 12 14 13 18 22 20 17 13 16 12 10 10 11 11 11 12 12
6 4 4 4 3 2 6 14 13 11 9 10 10 11 11 11 10 11 11 11 11 12 13 14 14 11 13 12 11 12 15 11 15 15 18 14 12 10 11 11 11 11 11 12 12
8 7 7 3 3 4 9 13 12 8 8 8 12 10 13 11 11 11 10 11 11 11 10 11 16 10 9 11 12 12 11 15 15 21 22 16 15 14 12 11 11 11 11 12 12
8 11 8 3 2 8 14 13 11 7 7 9 11 11 11 12 11 11 11 9 8 9 9 9 12 12 10 11 11 13 13 13 14 16 20 20 15 11 11 12 12 13 13 13 13
9 14 6 2 9 9 11 9 7 8 6 8 8 10 11 10 11 11 11 9 7 7 10 9 12 16 13 8 8 9 11 11 16 17 14 15 15 10 11 12 13 14 14 13 13
9 9 4 2 12 11 8 8 7 8 8 8 9 8 8 10 12 10 9 7 7 8 10 9 13 17 15 11 10 12 11 11 12 14 17 19 17 10 12 13 13 14 14 14 13
9 12 8 6 7 10 10 10 10 8 8 7 8 8 9 10 9 11 10 8 7 8 7 8 12 15 18 15 12 15 13 12 13 16 16 16 14 11 10 11 14 15 14 14 15
11 13 10 11 9 9 9 10 11 11 8 8 9 9 10 12 11 11 9 9 8 8 8 9 14 13 12 12 12 13 12 12 14 14 17 14 14 12 10 14 14 15 14 13 15
12 12 10 11 11 11 10 11 11 10 10 10 10 9 10 11 10 12 10 10 10 9 10 9 13 12 14 11 11 13 11 12 12 12 13 12 13 8 12 12 12 13 12 12 12
9 8 10 12 12 12 12 11 12 10 11 10 11 11 12 10 9 9 9 10 10 11 12 12 12 13 16 12 13 17 14 12 12 11 11 14 12 12 13 13 12 12 12 11 11